Time,TemperatureF,DewpointF,PressureIn,WindDirection,WindDirectionDegrees,WindSpeedMPH,WindSpeedGustMPH,Humidity,HourlyPrecipIn,Conditions,Clouds,dailyrainin,SoftwareType,DateUTC
2013-01-21 00:03:00,15.0,9.0,30.45,NNW,340,0.0,1.0,78,0.00,,,0.00,,2013-01-21 06:03:00,
2013-01-21 00:12:00,15.0,9.0,30.45,NNW,340,0.0,1.0,78,0.00,,,0.00,,2013-01-21 06:12:00,
2013-01-21 00:23:00,14.0,10.0,30.45,NNW,340,0.0,2.0,82,0.00,,,0.00,,2013-01-21 06:23:00,
2013-01-21 00:33:00,14.0,9.0,30.45,NNW,340,0.0,2.0,81,0.00,,,0.00,,2013-01-21 06:33:00,
2013-01-21 00:43:00,14.0,9.0,30.45,NNW,340,0.0,2.0,81,0.00,,,0.00,,2013-01-21 06:43:00,
2013-01-21 00:52:00,13.0,9.0,30.44,NNW,340,0.0,2.0,82,0.00,,,0.00,,2013-01-21 06:52:00,
2013-01-21 01:03:00,13.0,9.0,30.44,NNW,340,0.0,3.0,82,0.00,,,0.00,,2013-01-21 07:03:00,
2013-01-21 01:13:00,13.0,9.0,30.44,NNW,340,0.0,3.0,82,0.00,,,0.00,,2013-01-21 07:13:00,
2013-01-21 01:22:00,12.0,8.0,30.45,NNW,340,0.0,2.0,83,0.00,,,0.00,,2013-01-21 07:22:00,
2013-01-21 01:33:00,13.0,9.0,30.45,NNW,340,0.0,3.0,84,0.00,,,0.00,,2013-01-21 07:33:00,
2013-01-21 01:42:00,13.0,9.0,30.45,NNW,340,0.0,3.0,84,0.00,,,0.00,,2013-01-21 07:42:00,
2013-01-21 01:52:00,13.0,9.0,30.45,NNW,333,1.0,4.0,84,0.00,,,0.00,,2013-01-21 07:52:00,
2013-01-21 02:03:00,15.0,11.0,30.45,North,351,0.0,3.0,84,0.00,,,0.00,,2013-01-21 08:03:00,
2013-01-21 02:13:00,15.0,11.0,30.45,North,351,0.0,3.0,84,0.00,,,0.00,,2013-01-21 08:13:00,
2013-01-21 02:22:00,15.0,10.0,30.45,NW,318,1.0,4.0,81,0.00,,,0.00,,2013-01-21 08:22:00,
2013-01-21 02:32:00,15.0,11.0,30.44,WNW,298,2.0,4.0,82,0.00,,,0.00,,2013-01-21 08:32:00,
2013-01-21 02:42:00,15.0,11.0,30.44,WNW,298,2.0,4.0,82,0.00,,,0.00,,2013-01-21 08:42:00,
2013-01-21 02:53:00,15.0,11.0,30.45,WNW,288,3.0,5.0,82,0.00,,,0.00,,2013-01-21 08:53:00,
2013-01-21 03:03:00,15.0,11.0,30.45,NNW,333,2.0,5.0,82,0.00,,,0.00,,2013-01-21 09:03:00,
2013-01-21 03:12:00,15.0,11.0,30.45,NNW,333,2.0,5.0,82,0.00,,,0.00,,2013-01-21 09:12:00,
2013-01-21 03:23:00,16.0,11.0,30.44,NNW,344,2.0,6.0,81,0.00,,,0.00,,2013-01-21 09:23:00,
2013-01-21 03:33:00,16.0,11.0,30.45,North,351,3.0,6.0,81,0.00,,,0.00,,2013-01-21 09:33:00,
2013-01-21 03:42:00,16.0,11.0,30.45,North,351,3.0,6.0,81,0.00,,,0.00,,2013-01-21 09:42:00,
2013-01-21 03:52:00,15.0,10.0,30.45,NNE,24,1.0,5.0,81,0.00,,,0.00,,2013-01-21 09:52:00,
2013-01-21 04:02:00,14.0,10.0,30.44,NNE,15,0.0,2.0,82,0.00,,,0.00,,2013-01-21 10:02:00,
2013-01-21 04:12:00,14.0,10.0,30.44,NNE,15,0.0,2.0,82,0.00,,,0.00,,2013-01-21 10:12:00,
2013-01-21 04:22:00,14.0,11.0,30.43,NNE,18,0.0,3.0,87,0.00,,,0.00,,2013-01-21 10:22:00,
2013-01-21 04:32:00,16.0,13.0,30.42,ENE,78,1.0,6.0,86,0.00,,,0.00,,2013-01-21 10:32:00,
2013-01-21 04:43:00,16.0,13.0,30.42,ENE,78,1.0,6.0,86,0.00,,,0.00,,2013-01-21 10:43:00,
2013-01-21 04:52:00,16.0,12.0,30.44,ENE,57,2.0,5.0,85,0.00,,,0.00,,2013-01-21 10:52:00,
2013-01-21 05:02:00,16.0,12.0,30.45,East,82,3.0,6.0,85,0.00,,,0.00,,2013-01-21 11:02:00,
2013-01-21 05:13:00,16.0,12.0,30.45,East,82,3.0,6.0,85,0.00,,,0.00,,2013-01-21 11:13:00,
2013-01-21 05:23:00,16.0,12.0,30.45,ENE,78,4.0,11.0,84,0.00,,,0.00,,2013-01-21 11:23:00,
2013-01-21 05:33:00,16.0,12.0,30.45,East,84,2.0,9.0,84,0.00,,,0.00,,2013-01-21 11:33:00,
2013-01-21 05:42:00,16.0,12.0,30.45,East,84,2.0,9.0,84,0.00,,,0.00,,2013-01-21 11:42:00,
2013-01-21 05:53:00,16.0,12.0,30.46,ENE,69,2.0,7.0,84,0.00,,,0.00,,2013-01-21 11:53:00,
2013-01-21 06:02:00,16.0,12.0,30.46,ENE,57,3.0,9.0,83,0.00,,,0.00,,2013-01-21 12:02:00,
2013-01-21 06:12:00,16.0,12.0,30.46,ENE,57,3.0,9.0,83,0.00,,,0.00,,2013-01-21 12:12:00,
2013-01-21 06:22:00,16.0,12.0,30.46,NE,51,3.0,9.0,83,0.00,,,0.00,,2013-01-21 12:22:00,
2013-01-21 06:33:00,16.0,12.0,30.46,ENE,59,3.0,9.0,83,0.00,,,0.00,,2013-01-21 12:33:00,
2013-01-21 06:42:00,16.0,12.0,30.46,ENE,59,3.0,9.0,83,0.00,,,0.00,,2013-01-21 12:42:00,
2013-01-21 06:52:00,16.0,12.0,30.46,ENE,78,2.0,5.0,85,0.00,,,0.00,,2013-01-21 12:52:00,
2013-01-21 07:02:00,15.0,11.0,30.46,East,88,5.0,8.0,84,0.00,,,0.00,,2013-01-21 13:02:00,
2013-01-21 07:13:00,15.0,11.0,30.46,East,88,5.0,8.0,84,0.00,,,0.00,,2013-01-21 13:13:00,
2013-01-21 07:23:00,15.0,11.0,30.47,ENE,76,2.0,8.0,84,0.00,,,0.00,,2013-01-21 13:23:00,
2013-01-21 07:33:00,15.0,10.0,30.47,NE,50,3.0,8.0,81,0.00,,,0.00,,2013-01-21 13:33:00,
2013-01-21 07:43:00,15.0,10.0,30.47,NE,50,3.0,8.0,81,0.00,,,0.00,,2013-01-21 13:43:00,
2013-01-21 07:53:00,15.0,10.0,30.47,NE,50,3.0,8.0,81,0.00,,,0.00,,2013-01-21 13:53:00,
2013-01-21 08:03:00,15.0,9.0,30.47,NNE,28,3.0,8.0,77,0.00,,,0.00,,2013-01-21 14:03:00,
2013-01-21 08:12:00,15.0,9.0,30.47,NNE,28,3.0,8.0,77,0.00,,,0.00,,2013-01-21 14:12:00,
2013-01-21 08:23:00,15.0,9.0,30.47,NE,48,3.0,9.0,77,0.00,,,0.00,,2013-01-21 14:23:00,
2013-01-21 08:32:00,15.0,9.0,30.47,NE,53,2.0,6.0,78,0.00,,,0.00,,2013-01-21 14:32:00,
2013-01-21 08:43:00,15.0,9.0,30.47,NE,53,2.0,6.0,78,0.00,,,0.00,,2013-01-21 14:43:00,
2013-01-21 08:53:00,15.0,9.0,30.47,ENE,71,4.0,10.0,75,0.00,,,0.00,,2013-01-21 14:53:00,
2013-01-21 09:03:00,14.0,7.0,30.47,ENE,69,5.0,11.0,72,0.00,,,0.00,,2013-01-21 15:03:00,
2013-01-21 09:13:00,14.0,7.0,30.47,ENE,69,5.0,11.0,72,0.00,,,0.00,,2013-01-21 15:13:00,
2013-01-21 09:23:00,14.0,6.0,30.47,NE,46,3.0,10.0,71,0.00,,,0.00,,2013-01-21 15:23:00,
2013-01-21 09:33:00,14.0,6.0,30.48,NE,46,3.0,8.0,69,0.00,,,0.00,,2013-01-21 15:33:00,
2013-01-21 09:43:00,14.0,6.0,30.48,NE,46,3.0,8.0,69,0.00,,,0.00,,2013-01-21 15:43:00,
2013-01-21 09:53:00,14.0,6.0,30.48,NE,46,3.0,8.0,69,0.00,,,0.00,,2013-01-21 15:53:00,
2013-01-21 10:03:00,14.0,5.0,30.49,ENE,59,3.0,13.0,66,0.00,,,0.00,,2013-01-21 16:03:00,
2013-01-21 10:12:00,14.0,5.0,30.49,ENE,59,3.0,13.0,66,0.00,,,0.00,,2013-01-21 16:12:00,
2013-01-21 10:23:00,13.0,4.0,30.49,NE,49,2.0,11.0,66,0.00,,,0.00,,2013-01-21 16:23:00,
2013-01-21 10:33:00,13.0,3.0,30.50,ENE,57,3.0,9.0,64,0.00,,,0.00,,2013-01-21 16:33:00,
2013-01-21 10:43:00,13.0,3.0,30.50,ENE,57,3.0,9.0,64,0.00,,,0.00,,2013-01-21 16:43:00,
2013-01-21 10:53:00,13.0,3.0,30.50,East,81,4.0,8.0,65,0.00,,,0.00,,2013-01-21 16:53:00,
2013-01-21 11:02:00,13.0,5.0,30.52,NE,51,4.0,10.0,70,0.00,,,0.00,,2013-01-21 17:02:00,
2013-01-21 11:12:00,13.0,5.0,30.52,NE,51,4.0,10.0,70,0.00,,,0.00,,2013-01-21 17:12:00,
2013-01-21 11:23:00,13.0,5.0,30.51,East,80,4.0,9.0,70,0.00,,,0.00,,2013-01-21 17:23:00,
2013-01-21 11:33:00,13.0,5.0,30.51,East,80,4.0,9.0,70,0.00,,,0.00,,2013-01-21 17:33:00,
2013-01-21 11:43:00,13.0,5.0,30.51,East,80,4.0,9.0,70,0.00,,,0.00,,2013-01-21 17:43:00,
2013-01-21 11:53:00,12.0,6.0,30.51,ENE,63,2.0,7.0,76,0.00,,,0.00,,2013-01-21 17:53:00,
2013-01-21 12:03:00,12.0,7.0,30.50,NE,49,2.0,7.0,80,0.00,,,0.00,,2013-01-21 18:03:00,
2013-01-21 12:12:00,12.0,7.0,30.50,NE,49,2.0,7.0,80,0.00,,,0.00,,2013-01-21 18:12:00,
2013-01-21 12:22:00,12.0,7.0,30.50,ENE,78,0.0,5.0,80,0.00,,,0.00,,2013-01-21 18:22:00,
2013-01-21 12:33:00,12.0,8.0,30.50,NNE,17,1.0,4.0,82,0.00,,,0.00,,2013-01-21 18:33:00,
2013-01-21 12:42:00,12.0,8.0,30.50,NNE,17,1.0,4.0,82,0.00,,,0.00,,2013-01-21 18:42:00,
2013-01-21 12:52:00,12.0,7.0,30.49,ENE,63,2.0,6.0,81,0.00,,,0.00,,2013-01-21 18:52:00,
2013-01-21 13:03:00,12.0,8.0,30.48,NNE,18,0.0,4.0,82,0.00,,,0.00,,2013-01-21 19:03:00,
2013-01-21 13:12:00,12.0,8.0,30.48,NNE,18,0.0,4.0,82,0.00,,,0.00,,2013-01-21 19:12:00,
2013-01-21 13:22:00,12.0,8.0,30.48,NE,38,0.0,3.0,82,0.00,,,0.00,,2013-01-21 19:22:00,
2013-01-21 13:33:00,12.0,7.0,30.47,ENE,60,1.0,4.0,81,0.00,,,0.00,,2013-01-21 19:33:00,
2013-01-21 13:43:00,12.0,7.0,30.47,ENE,60,1.0,4.0,81,0.00,,,0.00,,2013-01-21 19:43:00,
2013-01-21 13:53:00,12.0,7.0,30.46,ENE,57,0.0,3.0,81,0.00,,,0.00,,2013-01-21 19:53:00,
2013-01-21 14:03:00,12.0,7.0,30.46,ENE,73,0.0,3.0,81,0.00,,,0.00,,2013-01-21 20:03:00,
2013-01-21 14:12:00,12.0,7.0,30.46,ENE,73,0.0,3.0,81,0.00,,,0.00,,2013-01-21 20:12:00,
2013-01-21 14:23:00,12.0,7.0,30.46,NE,51,0.0,5.0,81,0.00,,,0.00,,2013-01-21 20:23:00,
2013-01-21 14:33:00,13.0,8.0,30.45,NE,48,0.0,2.0,81,0.00,,,0.00,,2013-01-21 20:33:00,
2013-01-21 14:43:00,13.0,8.0,30.45,NE,48,0.0,2.0,81,0.00,,,0.00,,2013-01-21 20:43:00,
2013-01-21 14:53:00,12.0,7.0,30.44,NE,51,0.0,2.0,80,0.00,,,0.00,,2013-01-21 20:53:00,
2013-01-21 15:03:00,12.0,7.0,30.45,NE,51,0.0,1.0,81,0.00,,,0.00,,2013-01-21 21:03:00,
2013-01-21 15:12:00,12.0,7.0,30.45,NE,51,0.0,1.0,81,0.00,,,0.00,,2013-01-21 21:12:00,
2013-01-21 15:23:00,13.0,8.0,30.44,NE,51,0.0,1.0,80,0.00,,,0.00,,2013-01-21 21:23:00,
2013-01-21 15:33:00,13.0,8.0,30.44,NE,51,0.0,2.0,80,0.00,,,0.00,,2013-01-21 21:33:00,
2013-01-21 15:43:00,13.0,8.0,30.44,NE,51,0.0,2.0,80,0.00,,,0.00,,2013-01-21 21:43:00,
2013-01-21 15:53:00,13.0,8.0,30.45,NE,51,0.0,1.0,79,0.00,,,0.00,,2013-01-21 21:53:00,
2013-01-21 16:03:00,13.0,8.0,30.45,NE,51,0.0,1.0,80,0.00,,,0.00,,2013-01-21 22:03:00,
2013-01-21 16:12:00,13.0,8.0,30.45,NE,51,0.0,1.0,80,0.00,,,0.00,,2013-01-21 22:12:00,
2013-01-21 16:23:00,13.0,8.0,30.44,NE,51,0.0,1.0,80,0.00,,,0.00,,2013-01-21 22:23:00,
2013-01-21 16:33:00,13.0,8.0,30.44,NE,51,0.0,1.0,81,0.00,,,0.00,,2013-01-21 22:33:00,
2013-01-21 16:43:00,13.0,8.0,30.44,NE,51,0.0,1.0,81,0.00,,,0.00,,2013-01-21 22:43:00,
2013-01-21 16:52:00,13.0,9.0,30.43,NE,50,0.0,2.0,82,0.00,,,0.00,,2013-01-21 22:52:00,
2013-01-21 17:03:00,13.0,9.0,30.42,NE,45,0.0,2.0,83,0.00,,,0.00,,2013-01-21 23:03:00,
2013-01-21 17:12:00,13.0,9.0,30.42,NE,45,0.0,2.0,83,0.00,,,0.00,,2013-01-21 23:12:00,
2013-01-21 17:23:00,13.0,9.0,30.43,NE,42,0.0,4.0,83,0.00,,,0.00,,2013-01-21 23:23:00,
2013-01-21 17:33:00,12.0,8.0,30.43,NE,35,0.0,3.0,83,0.00,,,0.00,,2013-01-21 23:33:00,
2013-01-21 17:42:00,12.0,8.0,30.43,NE,35,0.0,3.0,83,0.00,,,0.00,,2013-01-21 23:42:00,
2013-01-21 17:53:00,12.0,8.0,30.43,ENE,64,1.0,6.0,82,0.00,,,0.00,,2013-01-21 23:53:00,
2013-01-21 18:02:00,12.0,8.0,30.42,ENE,63,0.0,4.0,82,0.00,,,0.00,,2013-01-22 00:02:00,
2013-01-21 18:12:00,12.0,8.0,30.42,ENE,63,0.0,4.0,82,0.00,,,0.00,,2013-01-22 00:12:00,
2013-01-21 18:22:00,12.0,8.0,30.42,NE,55,0.0,2.0,82,0.00,,,0.00,,2013-01-22 00:22:00,
2013-01-21 18:33:00,12.0,7.0,30.42,ENE,58,0.0,3.0,81,0.00,,,0.00,,2013-01-22 00:33:00,
2013-01-21 18:43:00,12.0,7.0,30.42,ENE,58,0.0,3.0,81,0.00,,,0.00,,2013-01-22 00:43:00,
2013-01-21 18:53:00,12.0,7.0,30.42,ENE,57,0.0,3.0,81,0.00,,,0.00,,2013-01-22 00:53:00,
2013-01-21 19:02:00,12.0,8.0,30.42,ENE,57,0.0,3.0,82,0.00,,,0.00,,2013-01-22 01:02:00,
2013-01-21 19:12:00,12.0,8.0,30.42,ENE,57,0.0,3.0,82,0.00,,,0.00,,2013-01-22 01:12:00,
2013-01-21 19:23:00,12.0,8.0,30.42,ENE,57,0.0,2.0,82,0.00,,,0.00,,2013-01-22 01:23:00,
2013-01-21 19:32:00,12.0,8.0,30.43,ENE,57,0.0,1.0,82,0.00,,,0.00,,2013-01-22 01:32:00,
2013-01-21 19:42:00,12.0,8.0,30.43,ENE,57,0.0,1.0,82,0.00,,,0.00,,2013-01-22 01:42:00,
2013-01-21 19:52:00,12.0,7.0,30.43,ENE,59,0.0,2.0,81,0.00,,,0.00,,2013-01-22 01:52:00,
2013-01-21 20:02:00,12.0,8.0,30.43,ENE,59,0.0,1.0,82,0.00,,,0.00,,2013-01-22 02:02:00,
2013-01-21 20:12:00,12.0,8.0,30.43,ENE,59,0.0,1.0,82,0.00,,,0.00,,2013-01-22 02:12:00,
2013-01-21 20:22:00,12.0,7.0,30.42,ENE,59,0.0,1.0,81,0.00,,,0.00,,2013-01-22 02:22:00,
2013-01-21 20:32:00,12.0,7.0,30.42,NE,53,0.0,2.0,81,0.00,,,0.00,,2013-01-22 02:32:00,
2013-01-21 20:42:00,12.0,7.0,30.42,NE,53,0.0,2.0,81,0.00,,,0.00,,2013-01-22 02:42:00,
2013-01-21 20:53:00,12.0,7.0,30.42,NE,56,0.0,1.0,81,0.00,,,0.00,,2013-01-22 02:53:00,
2013-01-21 21:02:00,12.0,7.0,30.43,NE,56,0.0,2.0,81,0.00,,,0.00,,2013-01-22 03:02:00,
2013-01-21 21:12:00,12.0,7.0,30.43,NE,56,0.0,2.0,81,0.00,,,0.00,,2013-01-22 03:12:00,
2013-01-21 21:22:00,12.0,7.0,30.43,NE,56,0.0,0.0,81,0.00,,,0.00,,2013-01-22 03:22:00,
2013-01-21 21:32:00,12.0,7.0,30.43,NE,56,0.0,0.0,81,0.00,,,0.00,,2013-01-22 03:32:00,
2013-01-21 21:42:00,12.0,7.0,30.43,NE,56,0.0,0.0,81,0.00,,,0.00,,2013-01-22 03:42:00,
2013-01-21 21:52:00,12.0,7.0,30.42,NE,56,0.0,0.0,80,0.00,,,0.00,,2013-01-22 03:52:00,
2013-01-21 22:02:00,12.0,7.0,30.42,ENE,67,0.0,1.0,79,0.00,,,0.00,,2013-01-22 04:02:00,
2013-01-21 22:12:00,12.0,7.0,30.42,ENE,67,0.0,1.0,79,0.00,,,0.00,,2013-01-22 04:12:00,
2013-01-21 22:22:00,12.0,7.0,30.42,ENE,67,0.0,0.0,79,0.00,,,0.00,,2013-01-22 04:22:00,
2013-01-21 22:32:00,12.0,7.0,30.41,ENE,71,0.0,3.0,79,0.00,,,0.00,,2013-01-22 04:32:00,
2013-01-21 22:42:00,12.0,7.0,30.41,ENE,71,0.0,3.0,79,0.00,,,0.00,,2013-01-22 04:42:00,
2013-01-21 22:52:00,12.0,6.0,30.42,ENE,74,0.0,3.0,78,0.00,,,0.00,,2013-01-22 04:52:00,
2013-01-21 23:04:00,12.0,6.0,30.42,East,80,0.0,2.0,78,0.00,,,0.00,,2013-01-22 05:04:00,
2013-01-21 23:12:00,12.0,6.0,30.42,East,80,0.0,2.0,78,0.00,,,0.00,,2013-01-22 05:12:00,
2013-01-21 23:22:00,12.0,6.0,30.42,East,86,0.0,3.0,78,0.00,,,0.00,,2013-01-22 05:22:00,
2013-01-21 23:32:00,12.0,6.0,30.42,East,86,0.0,3.0,78,0.00,,,0.00,,2013-01-22 05:32:00,
2013-01-21 23:42:00,12.0,7.0,30.42,South,186,0.0,3.0,79,0.00,,,0.00,,2013-01-22 05:42:00,
2013-01-21 23:52:00,12.0,7.0,30.42,South,180,0.0,2.0,79,0.00,,,0.00,,2013-01-22 05:52:00,